www.pogodaiklimat.ru
Время
(UTC), дата
03 27.05
06 27.05
09 27.05
12 27.05
15 27.05
18 27.05
21 27.05
00 28.05
03 28.05
06 28.05
09 28.05
12 28.05
15 28.05
18 28.05
21 28.05
00 29.05
03 29.05
06 29.05
09 29.05
12 29.05
15 29.05
18 29.05
21 29.05
00 30.05
03 30.05
06 30.05
09 30.05
12 30.05
15 30.05
18 30.05
21 30.05
00 31.05
03 31.05
06 31.05
09 31.05
12 31.05
15 31.05
18 31.05
21 31.05
00 1.06
03 1.06
06 1.06
09 1.06
12 1.06
15 1.06
18 1.06
21 1.06
00 2.06
03 2.06
06 2.06
09 2.06
12 2.06
15 2.06
18 2.06
21 2.06
00 3.06
Ветер
(напр.,м/с)
Видим. Явления Облачность Т
(С)
Тd
(С)
f
(%)
Тe
(С)
Тes
(С)
Комфортность P
(гПа)
Po
(гПа)
Тmin
(С)
Tmax
(С)
R
(мм)
R24
(мм)
S
(см)
В 2 4000 м дымка ясно +12.8 +12.1 96 +12 +13 1021.8 1012.4 +8.4
В 3 20 км 9/0
[Ac trans]
+18.3 +13.1 72 +19 +23 1021.9 1012.7
В 5 20 км 3/0
[Ac trans]
+21.7 +10.7 50 +24 +32 комфорт 1020.9 1011.7
В 5
{11}
20 км 1/0
[Ac cast]
+24.0 +11.7 46 +26 +32 жарко 1019.3 1010.3
В 6-10
{12}
20 км ясно +24.4 +11.2 44 +26 +27 жарко 1017.8 1008.8 +24.6
В 3
{10}
20 км ясно +20.4 +12.9 62 +23 +23 комфорт 1018.3 1009.2
В 5 20 км ясно +17.6 +12.4 72 +17 +17 1017.4 1008.2
В 5 20 км ясно +15.2 +12.8 86 +14 +14 1016.7 1007.5
В 5 20 км 1/0
[Ac lent]
+15.9 +12.6 81 +15 +15 1016.5 1007.2 +14.8
В 8-12
{12}
20 км 1/0
[Ac trans]
+22.2 +12.0 52 +25 +26 комфорт 1015.4 1006.3
В 6-11
{13}
20 км пыльный позёмок ясно +25.9 +10.8 39 +27 +34 жарко 1014.1 1005.2
В 7-11
{13}
20 км пыльный позёмок ясно +28.6 +9.0 29 +28 +32 жарко 1012.4 1003.5
В 4
{12}
20 км пыльный позёмок 3/0
[Ci fib]
+28.8 +8.9 29 +29 +30 жарко 1011.3 1002.5 +29.3
В 2 20 км {метель} 8/3 600 м
[Sc Ac trans Ci fib]
+23.4 +10.0 43 +25 +25 комфорт 1011.9 1002.9
В 4 20 км 8/5 600 м
[Sc Ci fib]
+21.8 +11.2 51 +24 +24 комфорт 1010.7 1001.7
В 2 20 км 8/8 600 м
[Sc]
+18.5 +10.4 59 +19 +19 1010.8 1001.7
В 3 20 км 9/4 600 м
[Sc Ci]
+16.9 +13.4 80 +17 +17 1010.5 1001.3 +16.7
В 4 20 км 6/0
[Ac cast Ci fib]
+22.9 +13.6 56 +26 +31 жарко 1009.0 1000.0
В 5
{10}
20 км 8/0
[Ci]
+26.6 +12.8 42 +28 +36 жарко 1006.6 997.7
ЮВ 3
{11}
20 км 9/6 600 м
[Cb cap Ac As Ci fib]
+30.0 +9.5 28 +30 +32 жарко 1005.6 996.8
З 5-10
{12}
20 км гроза без осадков 8/6 600 м
[Cb cap Ci fib]
+24.0 +15.7 60 +27 +28 жарко 1005.2 996.3 +30.5
З 6-12
{12}
20 км в посл. час ливневой дождь {гроза} 9/8 600 м
[Cb cap Ac trans Ci fib]
+19.0 +17.0 88 +20 +20 1007.0 997.9
ЮЗ 5
{15}
20 км зарница {ливн. осадки} 10/8 600 м
[Cb cap Ac und]
+15.5 +14.4 93 +14 +14 1009.5 1000.3
З 5
{10}
4000 м слаб. ливневой дождь 10/10 600 м
[Cb cap]
+13.7 +13.1 96 +12 +12 1009.7 1000.4
ЮЗ 3
{10}
20 км {ливн. осадки} 9/6 300 м
[Frnb Ac trans Ci fib]
+13.7 +12.8 94 +12 +13 1012.7 1003.4 +13.5 7
ЮЗ 5-10
{10}
20 км {ливн. осадки} 6/5 600 м
[Sc diur, vesp Ac cast]
+17.6 +11.5 67 +17 +20 1013.3 1004.1
З 6-11
{13}
20 км 8/6 600 м
[Cb cap Ac cast]
+19.8 +9.7 52 +21 +23 комфорт 1014.2 1005.1
ЮЗ 4-10
{11}
20 км 8/5 600 м
[Cb cap Ac cast]
+22.7 +8.5 40 +24 +26 комфорт 1014.4 1005.3
ЮЗ 4
{11}
20 км 4/4 600 м
[Sc diur, vesp]
+22.2 +8.0 40 +23 +24 комфорт 1014.9 1005.8 +23.0
З 1 20 км ясно +17.0 +9.6 62 +18 +18 1016.8 1007.5
З 1 20 км ясно +13.6 +9.9 78 +14 +14 1017.2 1007.8
ЮЗ 1 20 км ясно +11.9 +9.2 84 +12 +12 1017.5 1008.1
Ю 1 20 км 1/1 600 м
[Sc]
+12.7 +10.0 84 +13 +14 1018.2 1008.8 +9.3
ЮЗ 3 20 км 1/1 600 м
[Sc]
+19.0 +8.8 52 +20 +28 1017.7 1008.5
Ю 4 20 км 4/4 1000 м
[Cu med, cong]
+22.4 +8.1 40 +24 +31 комфорт 1016.7 1007.6
ЮЗ 4
{10}
20 км 8/6 600 м
[Cu Sc Ci fib]
+23.9 +7.2 34 +24 +27 комфорт 1015.2 1006.2
З 3 20 км 8/3 600 м
[Sc Ci fib]
+23.3 +7.1 35 +24 +25 комфорт 1014.0 1005.0 +24.1
ЮВ 1 20 км 1/0
[Ci fib]
+15.4 +11.3 77 +16 +16 1014.7 1005.4
В 1 20 км 3/0
[Ci fib]
+13.6 +11.0 84 +14 +14 1013.9 1004.6
В 1 20 км 8/4 600 м
[Sc Ci fib]
+14.7 +10.7 77 +15 +15 1012.9 1003.6
С 2 20 км 9/4 600 м
[Sc Ci fib]
+13.7 +11.8 88 +13 +14 1012.4 1003.1 +12.6
В 2 20 км 10/10 600 м
[Cb cap]
+18.7 +14.2 75 +20 +20 1011.4 1002.3
ЮВ 4 20 км {гроза, ливн. осадки} 10/8 600 м
[Cb cap Cs]
+20.7 +12.5 59 +23 +25 комфорт 1011.2 1002.1
ЮВ 5
{10}
20 км {гроза, ливн. осадки} 5/3 600 м
[Sc diur, vesp Ci fib]
+24.2 +11.7 46 +26 +30 жарко 1009.0 1000.0
СЗ 4
{10}
4000 м гроза, ливневой дождь 10/10 600 м
[Cb cap]
+17.7 +13.9 78 +17 +17 1009.5 1000.4 +25.1 0.3
ЮВ 2 4000 м дымка {гроза, ливн. осадки} 4/4 600 м
[Sc diur, vesp]
+14.7 +13.9 95 +14 +14 1010.2 1000.9
Ю 1 2000 м дымка 5/0
[Ci fib]
+12.7 +12.6 99 +13 +13 1009.9 1000.6
ЮВ 1 4000 м дымка 3/0
[Ci fib]
+13.2 +13.1 99 +13 +13 1009.1 999.8
В 1 4000 м дымка 8/0
[Cs]
+14.3 +14.2 99 +15 +16 1008.4 999.2 +12.4 5
СВ 2 20 км 3/0
[Ac lent]
+21.0 +15.4 70 +25 +33 комфорт 1007.7 998.7
СВ 2 20 км 10/4 600 м
[Cb cap Ac lent]
+22.5 +15.2 63 +26 +28 жарко 1007.1 998.1
ЮЗ 2 20 км {ливн. осадки} 10/8 600 м
[Cb calv Ac lent]
+21.9 +17.0 74 +26 +27 душно 1007.8 998.8
С 4 4000 м гроза, ливневой дождь 10/8 600 м
[Cb cap Ac cast]
+16.7 +16.4 98 +16 +16 1006.8 997.7 +22.9 2
СЗ 3 4000 м зарница {гроза, ливн. осадки} 10/5 600 м
[Cb cap Ac lent]
+16.3 +15.6 96 +16 +16 1006.3 997.1
В 2 4000 м слаб. ливневой дождь 10/10 600 м
[Cb cap]
+15.9 +15.4 97 +16 +16 1005.4 996.3
З 5
{10}
4000 м дымка {ливн. осадки} 10/10 600 м
[Cb cap]
+15.9 +14.6 92 +15 +15 1004.9 995.7
Местоположение метеостанции Гигант (Ростовская область, Россия): широта 46.52 долгота 41.35 высота над уровнем моря 79 м.
В архиве по умолчанию представлена погода в Гиганте за последнюю неделю. Архивные данные за месяц целиком и за предыдущие месяцы, начиная с января 2011 года, Вы можете получить, выбрав интересующий диапазон дат из раскрывающегося списка и нажав кнопку "Найти!".
*Определитесь, кто Вы:
Внимание! Время в таблицах - всемирное. Для получения местного времени необходимо прибавить поправку, которая равна 3 ч.
Смотрите также архив погоды в соседних городах и на ближайших метеорологических станциях:
Партнеры нашего сайта:      
Пояснения к столбцам:
  • Ветер - указаны скорость ветра в м/с - средняя за 10 мин, порывы в срок и между сроками (в фигурных скобках) и направление, откуда дует ветер: С - северный,
  • СВ - северо-восточный, В - восточный, ЮВ - юго-восточный, Ю - южный, ЮЗ - юго-западный, З - западный, СЗ - северо-западный.
  • Видимость - горизонтальная дальность видимости в метрах или километрах. При видимости от 1 до 10 км при отсутствии осадков обычно наблюдается дымка, при ухудшении видимости до 1 км и менее - туман. В сухую погоду видимость может ухудшаться дымом, пылью или мглою.
  • Явления - указаны атмосферные явления, наблюдавшиеся в срок или в последний час перед сроком; фигурными скобками обозначены явления, наблюдавшиеся между сроками (за 1-3 часа до срока); квадратными скобками обозначены град или гололедные отложения с указанием их диаметра в мм.
  • Облачность - указаны через наклонную черту общая и нижняя облачность в баллах и высота нижней границы облаков в метрах; квадратными скобками обозначены формы облаков: Ci - перистые, Cs - перисто-слоистые, Cc - перисто-кучевые, Ac - высококучевые, As - высокослоистые, Sc - слоисто-кучевые, Ns - слоисто-дождевые, Cu - кучевые, Cb - кучево-дождевые. Подробнее классификацию облаков см. в Атласе облаков (PDF).
  • T - Температура воздуха - температура, измеренная на высоте 2 м над землей.
  • Td - Температура точки росы - температура, при понижении до которой содержащийся в воздухе водяной пар достигнет насыщения.
  • f - Относительная влажность воздуха - влажноcть воздуха, измеренная на высоте 2 м над землей.
  • Te - Эффективная температура - температура, которую ощущает одетый по сезону человек в тени. Характеристика душности погоды. При расчете учитывается влияние влажности воздуха и скорости ветра на теплоощущения человека.
  • Tes - Эффективная температура на солнце - температура, которую ощущает человек, с поправкой на солнечный нагрев. Характеристика знойности погоды. Зависит от высоты солнца над горизонтом, облачности и скорости ветра. Ночью, в пасмурную погоду, а также при ветре 12 м/с и более поправка равна нулю.
  • P - Атмосферное давление - приведенное к уровню моря атмосферное давление.
  • Po - Атмосферное давление - измеренное на уровне метеостанции атмосферное давление.
  • Tmin - Минимальная температура - минимум температуры воздуха на высоте 2 м над землей.
  • Tmax - Максимальная температура - максимум температуры воздуха на высоте 2 м над землей.
  • R - Количество осадков - Количество выпавших осадков за период времени, мм. При наведении курсора мыши на число - период времени, за который выпало указанное количество осадков.
  • R24 - Количество осадков - Количество выпавших осадков за 24 часа, мм.
  • S - Снежный покров - Высота снежного покрова, см. При наведении курсора мыши на число - состояние снежного покрова и степень покрытия местности в баллах.